Flag for Canada Weather past 2 weeks in Saint John, New Brunswick, Canada

Now
57 °F

Fog.


Feels Like: 57 °F
Forecast: 55 / 72 °F
Wind: 3 mph from South

Location: Saint John

Current Time: Jul 30, 2014 at 2:12:16 AM

Latest Report: Jul 30, 2014 at 1:00 AM


Visibility: 0 mi

Pressure: 29.98 "Hg

Humidity: 100%

Dew point: 57 °F

Location of Saint JohnLocation

Historic Weather in Saint John — Graph

°F

Saint John temperature yesterday

Maximum temperature yesterday: 66 °F (at 12:00 AM)
Minimum temperature yesterday: 57 °F (at 10:00 PM)
Average temperature yesterday: 63 °F

Past Weeks' High & Low Weather Summary

 TemperatureHumidityPressure
High81 °F (Jul 19, 3:00 PM)100% (Jul 15, 12:00 AM)30.27 "Hg (Jul 15, 12:00 AM)
Low48 °F (Jul 26, 5:00 AM)39% (Jul 19, 2:00 PM)29.59 "Hg (Jul 29, 3:00 AM)
Average63 °F88%29.94 "Hg
* Reported Midnight between Jul 14 and Jul 15 — Jul 30 12:45 AM, Saint John, Weather by CustomWeather, © 2014

Note: Actual official high and low records may vary slightly from our data, if they occured in-between our weather recording intervals... More about our weather records

Advertising

Saint John weather history for previous 24 hours

 ConditionsComfort  
Time TempWeatherWind HumidityBarometerVisibility
12:45 AM
Jul 30
57 °FFog.5 mph100%29.97 "Hg1 mi
12:00 AM57 °FFog.6 mph100%29.96 "Hg1 mi
11:00 PM
Jul 29
57 °FFog.5 mph100%29.95 "Hg2 mi
10:00 PM57 °FPartly cloudy.7 mph100%29.94 "Hg15 mi
9:00 PM59 °FBroken clouds.7 mph100%29.93 "Hg15 mi
8:00 PM63 °FPartly sunny.9 mph88%29.91 "Hg15 mi
7:00 PM63 °FBroken clouds.9 mph88%29.90 "Hg15 mi
6:00 PM64 °FBroken clouds.14 mph83%29.87 "Hg10 mi
5:00 PM63 °FLow clouds.14 mph88%29.84 "Hg10 mi
4:00 PM61 °FFog.15 mph94%29.82 "Hg6 mi
3:00 PM61 °FFog.15 mph100%29.79 "Hg2 mi
2:00 PM63 °FFog.16 mph94%29.76 "Hg1 mi
1:00 PM64 °FFog.22 mph94%29.74 "Hg1 mi
12:00 PM63 °FFog.16 mph100%29.73 "Hg1 mi
11:00 AM63 °FFog.15 mph100%29.71 "Hg1 mi
10:00 AM61 °FFog.17 mph100%29.70 "Hg0 mi
9:00 AM61 °FFog.16 mph100%29.69 "Hg0 mi
8:00 AM61 °FFog.14 mph100%29.67 "Hg0 mi
7:00 AM61 °FFog.17 mph100%29.65 "Hg0 mi
6:00 AM63 °FFog.20 mph100%29.63 "Hg1 mi
5:45 AM63 °FRain. Dense fog.17 mph100%29.63 "Hg1 mi
5:00 AM64 °FFog.16 mph100%29.61 "Hg2 mi
4:00 AM64 °FFog.21 mph100%29.59 "Hg2 mi
3:00 AM66 °FFog.14 mph100%29.59 "Hg4 mi
2:00 AM66 °FFog.9 mph100%29.59 "Hg2 mi
Weather by CustomWeather, © 2014

See weather overviewHow to use our weather pages